EDT,Max TemperatureF,Mean TemperatureF,Min TemperatureF,Max Dew PointF,MeanDew PointF,Min DewpointF,Max Humidity, Mean Humidity, Min Humidity, Max Sea Level PressureIn, Mean Sea Level PressureIn, Min Sea Level PressureIn, Max VisibilityMiles, Mean VisibilityMiles, Min VisibilityMiles, Max Wind SpeedMPH, Mean Wind SpeedMPH, Max Gust SpeedMPH,PrecipitationIn, CloudCover, Events, WindDirDegrees
2013-10-1,86,74,62,62,59,57,90,65,40,30.13,30.08,30.03,10,10,9,9,2,13,0.00,2,,93
2013-10-2,86,74,62,62,59,56,84,61,37,30.15,30.09,30.04,10,10,10,10,2,14,0.00,0,,130
2013-10-3,86,75,63,62,59,56,87,61,35,30.12,30.08,30.03,10,10,9,12,2,17,0.00,0,,124
2013-10-4,89,77,64,67,63,60,87,66,45,30.14,30.09,30.04,10,10,8,10,4,14,0.00,1,,120
2013-10-5,89,78,66,68,63,61,87,65,42,30.11,30.05,29.99,10,10,10,12,4,16,0.00,1,,120
2013-10-6,87,77,67,71,67,63,93,72,51,30.00,29.92,29.86,10,10,8,16,3,21,0.04,3,Rain,144
2013-10-7,79,72,64,70,62,49,93,68,42,29.94,29.86,29.81,10,9,2,18,6,25,0.31,6,Rain,8
2013-10-8,80,71,61,61,56,49,78,66,54,30.10,30.00,29.92,10,10,10,18,9,23,0.00,6,,68
2013-10-9,79,70,61,59,56,53,78,63,48,30.18,30.12,30.07,10,10,9,17,7,23,0.00,5,,99
2013-10-10,84,72,60,61,56,50,90,65,40,30.14,30.07,30.01,10,10,10,12,2,15,0.00,2,,347
2013-10-11,85,73,60,60,58,54,90,62,34,30.06,30.01,29.97,10,10,10,16,3,21,0.00,2,,332
2013-10-12,84,71,58,58,55,52,90,61,32,30.08,30.04,30.00,10,10,8,16,4,22,0.00,0,,359
2013-10-13,87,73,58,60,57,54,87,60,32,30.16,30.11,30.06,10,10,8,9,2,14,0.00,1,,34
2013-10-14,75,70,64,61,61,60,87,76,64,30.18,30.13,30.09,10,10,10,15,7,18,0.00,5,,87
2013-10-15,75,68,61,61,60,57,90,74,58,30.12,30.07,30.02,10,10,10,15,6,21,0.00,4,,87
2013-10-16,82,70,58,61,58,55,93,69,45,30.06,30.00,29.94,10,10,9,8,2,12,0.00,1,,169
2013-10-17,83,73,63,70,66,59,93,74,55,29.98,29.93,29.88,10,8,2,18,4,23,0.09,6,Rain,274
2013-10-18,76,70,63,64,58,53,87,69,50,30.03,29.97,29.93,10,10,8,12,4,15,T,5,Rain,357
2013-10-19,66,63,60,58,56,54,84,76,67,30.01,29.96,29.94,10,10,7,8,2,12,0.01,5,Rain,324
2013-10-20,75,64,53,56,50,47,93,66,38,30.06,30.02,29.98,10,10,10,10,3,15,0.00,0,,345
2013-10-21,74,63,51,59,52,46,84,67,49,30.10,30.04,30.00,10,10,10,7,0,9,T,2,,30
2013-10-22,76,69,62,62,60,51,87,73,58,30.01,29.95,29.86,10,8,5,10,3,14,T,6,Rain,291
2013-10-23,71,61,51,51,42,32,89,57,25,30.11,29.97,29.89,10,10,10,22,9,30,0.00,0,,322
2013-10-24,73,58,43,45,39,35,76,53,29,30.23,30.16,30.11,10,10,10,14,2,17,0.00,0,,304
2013-10-25,63,54,45,44,29,19,71,45,19,30.40,30.31,30.19,10,10,10,15,7,23,0.00,0,,12
2013-10-26,66,51,36,41,33,27,82,54,26,30.34,30.26,30.19,10,10,10,8,1,12,0.00,0,,145
2013-10-27,75,59,43,53,45,39,89,63,37,30.19,30.15,30.11,10,10,8,8,1,13,0.00,1,,292
2013-10-28,78,68,57,56,53,50,86,64,41,30.26,30.20,30.13,10,10,7,9,3,12,T,5,,101
2013-10-29,81,68,55,56,54,50,86,61,35,30.33,30.26,30.21,10,10,8,8,1,10,0.00,2,,116
2013-10-30,81,69,57,54,53,51,80,58,36,30.30,30.22,30.14,10,10,9,9,2,17,0.00,0,,129
2013-10-31,80,70,60,64,58,53,84,65,45,30.15,30.03,29.91,10,10,9,17,7,25,T,3,Rain,174